Year,Month,Day,Hour,Minute,Value (Times are PST for temperature in C)
2015,06,18,00,00,15.20
2015,06,18,00,01,15.20
2015,06,18,00,02,15.20
2015,06,18,00,03,15.20
2015,06,18,00,04,15.20
2015,06,18,00,05,15.20
2015,06,18,00,06,15.20
2015,06,18,00,07,15.10
2015,06,18,00,08,15.10
2015,06,18,00,09,15.10
2015,06,18,00,10,15.10
2015,06,18,00,11,15.10
2015,06,18,00,12,15.00
2015,06,18,00,13,15.00
2015,06,18,00,14,15.00
2015,06,18,00,15,15.00
2015,06,18,00,16,14.90
2015,06,18,00,17,14.90
2015,06,18,00,18,14.90
2015,06,18,00,19,14.90
2015,06,18,00,20,14.90
2015,06,18,00,21,14.90
2015,06,18,00,22,14.80
2015,06,18,00,23,14.80
2015,06,18,00,24,14.80
2015,06,18,00,25,14.80
2015,06,18,00,26,14.80
2015,06,18,00,27,14.80
2015,06,18,00,28,14.80
2015,06,18,00,29,14.80
2015,06,18,00,30,14.80
2015,06,18,00,31,14.80
2015,06,18,00,32,14.80
2015,06,18,00,33,14.80
2015,06,18,00,34,14.80
2015,06,18,00,35,14.80
2015,06,18,00,36,14.80
2015,06,18,00,37,14.80
2015,06,18,00,38,14.80
2015,06,18,00,39,14.80
2015,06,18,00,40,14.80
2015,06,18,00,41,14.70
2015,06,18,00,42,14.70
2015,06,18,00,43,14.70
2015,06,18,00,44,14.70
2015,06,18,00,45,14.70
2015,06,18,00,46,14.70
2015,06,18,00,47,14.70
2015,06,18,00,48,14.70
2015,06,18,00,49,14.70
2015,06,18,00,50,14.70
2015,06,18,00,51,14.70
2015,06,18,00,52,14.60
2015,06,18,00,53,14.60
2015,06,18,00,54,14.60
2015,06,18,00,55,14.60
2015,06,18,00,56,14.60
2015,06,18,00,57,14.60
2015,06,18,00,58,14.60
2015,06,18,00,59,14.60
2015,06,18,01,00,14.60
2015,06,18,01,01,14.60
2015,06,18,01,02,14.60
2015,06,18,01,03,14.60
2015,06,18,01,04,14.50
2015,06,18,01,05,14.50
2015,06,18,01,06,14.50
2015,06,18,01,07,14.50
2015,06,18,01,08,14.50
2015,06,18,01,09,14.50
2015,06,18,01,10,14.50
2015,06,18,01,11,14.50
2015,06,18,01,12,14.50
2015,06,18,01,13,14.50
2015,06,18,01,14,14.50
2015,06,18,01,15,14.50
2015,06,18,01,16,14.50
2015,06,18,01,17,14.50
2015,06,18,01,18,14.50
2015,06,18,01,19,14.50
2015,06,18,01,20,14.50
2015,06,18,01,21,14.50
2015,06,18,01,22,14.40
2015,06,18,01,23,14.40
2015,06,18,01,24,14.40
2015,06,18,01,25,14.40
2015,06,18,01,26,14.40
2015,06,18,01,27,14.40
2015,06,18,01,28,14.40
2015,06,18,01,29,14.40
2015,06,18,01,30,14.40
2015,06,18,01,31,14.40
2015,06,18,01,32,14.40
2015,06,18,01,33,14.40
2015,06,18,01,34,14.40
2015,06,18,01,35,14.40
2015,06,18,01,36,14.40
2015,06,18,01,37,14.40
2015,06,18,01,38,14.40
2015,06,18,01,39,14.40
2015,06,18,01,40,14.40
2015,06,18,01,41,14.40
2015,06,18,01,42,14.40
2015,06,18,01,43,14.40
2015,06,18,01,44,14.40
2015,06,18,01,45,14.30
2015,06,18,01,46,14.30
2015,06,18,01,47,14.30
2015,06,18,01,48,14.30
2015,06,18,01,49,14.30
2015,06,18,01,50,14.30
2015,06,18,01,51,14.30
2015,06,18,01,52,14.30
2015,06,18,01,53,14.30
2015,06,18,01,54,14.30
2015,06,18,01,55,14.30
2015,06,18,01,56,14.20
2015,06,18,01,57,14.20
2015,06,18,01,58,14.20
2015,06,18,01,59,14.20
2015,06,18,02,00,14.20
2015,06,18,02,01,14.20
2015,06,18,02,02,14.10
2015,06,18,02,03,14.10
2015,06,18,02,04,14.10
2015,06,18,02,05,14.10
2015,06,18,02,06,14.10
2015,06,18,02,07,14.10
2015,06,18,02,08,14.00
2015,06,18,02,09,14.00
2015,06,18,02,10,14.00
2015,06,18,02,11,14.00
2015,06,18,02,12,13.90
2015,06,18,02,13,13.90
2015,06,18,02,14,13.90
2015,06,18,02,15,13.90
2015,06,18,02,16,13.90
2015,06,18,02,17,13.80
2015,06,18,02,18,13.80
2015,06,18,02,19,13.80
2015,06,18,02,20,13.80
2015,06,18,02,21,13.80
2015,06,18,02,22,13.80
2015,06,18,02,23,13.80
2015,06,18,02,24,13.80
2015,06,18,02,25,13.70
2015,06,18,02,26,13.70
2015,06,18,02,27,13.70
2015,06,18,02,28,13.70
2015,06,18,02,29,13.70
2015,06,18,02,30,13.70
2015,06,18,02,31,13.70
2015,06,18,02,32,13.70
2015,06,18,02,33,13.70
2015,06,18,02,34,13.70
2015,06,18,02,35,13.70
2015,06,18,02,36,13.70
2015,06,18,02,37,13.70
2015,06,18,02,38,13.80
2015,06,18,02,39,13.70
2015,06,18,02,40,13.70
2015,06,18,02,41,13.70
2015,06,18,02,42,13.70
2015,06,18,02,43,13.70
2015,06,18,02,44,13.70
2015,06,18,02,45,13.70
2015,06,18,02,46,13.70
2015,06,18,02,47,13.70
2015,06,18,02,48,13.60
2015,06,18,02,49,13.60
2015,06,18,02,50,13.60
2015,06,18,02,51,13.60
2015,06,18,02,52,13.60
2015,06,18,02,53,13.60
2015,06,18,02,54,13.60
2015,06,18,02,55,13.60
2015,06,18,02,56,13.60
2015,06,18,02,57,13.60
2015,06,18,02,58,13.60
2015,06,18,02,59,13.60
2015,06,18,03,00,13.60
2015,06,18,03,01,13.50
2015,06,18,03,02,13.50
2015,06,18,03,03,13.50
2015,06,18,03,04,13.50
2015,06,18,03,05,13.40
2015,06,18,03,06,13.40
2015,06,18,03,07,13.40
2015,06,18,03,08,13.40
2015,06,18,03,09,13.40
2015,06,18,03,10,13.30
2015,06,18,03,11,13.30
2015,06,18,03,12,13.30
2015,06,18,03,13,13.30
2015,06,18,03,14,13.30
2015,06,18,03,15,13.30
2015,06,18,03,16,13.30
2015,06,18,03,17,13.30
2015,06,18,03,18,13.20
2015,06,18,03,19,13.20
2015,06,18,03,20,13.20
2015,06,18,03,21,13.20
2015,06,18,03,22,13.10
2015,06,18,03,23,13.10
2015,06,18,03,24,13.00
2015,06,18,03,25,13.00
2015,06,18,03,26,12.90
2015,06,18,03,27,12.90
2015,06,18,03,28,12.90
2015,06,18,03,29,12.80
2015,06,18,03,30,12.80
2015,06,18,03,31,12.80
2015,06,18,03,32,12.80
2015,06,18,03,33,12.70
2015,06,18,03,34,12.70
2015,06,18,03,35,12.70
2015,06,18,03,36,12.70
2015,06,18,03,37,12.70
2015,06,18,03,38,12.70
2015,06,18,03,39,12.70
2015,06,18,03,40,12.60
2015,06,18,03,41,12.60
2015,06,18,03,42,12.60
2015,06,18,03,43,12.60
2015,06,18,03,44,12.60
2015,06,18,03,45,12.60
2015,06,18,03,46,12.60
2015,06,18,03,47,12.60
2015,06,18,03,48,12.60
2015,06,18,03,49,12.60
2015,06,18,03,50,12.60
2015,06,18,03,51,12.60
2015,06,18,03,52,12.60
2015,06,18,03,53,12.60
2015,06,18,03,54,12.60
2015,06,18,03,55,12.60
2015,06,18,03,56,12.60
2015,06,18,03,57,12.60
2015,06,18,03,58,12.60
2015,06,18,03,59,12.60
2015,06,18,04,00,12.60
2015,06,18,04,01,12.60
2015,06,18,04,02,12.60
2015,06,18,04,03,12.60
2015,06,18,04,04,12.60
2015,06,18,04,05,12.70
2015,06,18,04,06,12.70
2015,06,18,04,07,12.70
2015,06,18,04,08,12.70
2015,06,18,04,09,12.70
2015,06,18,04,10,12.70
2015,06,18,04,11,12.70
2015,06,18,04,12,12.70
2015,06,18,04,13,12.60
2015,06,18,04,14,12.60
2015,06,18,04,15,12.60
2015,06,18,04,16,12.50
2015,06,18,04,17,12.50
2015,06,18,04,18,12.50
2015,06,18,04,19,12.40
2015,06,18,04,20,12.40
2015,06,18,04,21,12.40
2015,06,18,04,22,12.40
2015,06,18,04,23,12.30
2015,06,18,04,24,12.30
2015,06,18,04,25,12.30
2015,06,18,04,26,12.30
2015,06,18,04,27,12.30
2015,06,18,04,28,12.20
2015,06,18,04,29,12.20
2015,06,18,04,30,12.20
2015,06,18,04,31,12.20
2015,06,18,04,32,12.20
2015,06,18,04,33,12.10
2015,06,18,04,34,12.10
2015,06,18,04,35,12.10
2015,06,18,04,36,12.10
2015,06,18,04,37,12.10
2015,06,18,04,38,12.10
2015,06,18,04,39,12.10
2015,06,18,04,40,12.10
2015,06,18,04,41,12.10
2015,06,18,04,42,12.10
2015,06,18,04,43,12.00
2015,06,18,04,44,12.00
2015,06,18,04,45,12.00
2015,06,18,04,46,12.00
2015,06,18,04,47,12.00
2015,06,18,04,48,12.00
2015,06,18,04,49,12.00
2015,06,18,04,50,12.00
2015,06,18,04,51,12.00
2015,06,18,04,52,12.00
2015,06,18,04,53,12.00
2015,06,18,04,54,12.00
2015,06,18,04,55,12.00
2015,06,18,04,56,12.00
2015,06,18,04,57,12.00
2015,06,18,04,58,12.10
2015,06,18,04,59,12.10
2015,06,18,05,00,12.10
2015,06,18,05,01,12.10
2015,06,18,05,02,12.10
2015,06,18,05,03,12.10
2015,06,18,05,04,12.10
2015,06,18,05,05,12.10
2015,06,18,05,06,12.10
2015,06,18,05,07,12.10
2015,06,18,05,08,12.10
2015,06,18,05,09,12.10
2015,06,18,05,10,12.10
2015,06,18,05,11,12.10
2015,06,18,05,12,12.10
2015,06,18,05,13,12.10
2015,06,18,05,14,12.10
2015,06,18,05,15,12.10
2015,06,18,05,16,12.10
2015,06,18,05,17,12.10
2015,06,18,05,18,12.10
2015,06,18,05,19,12.10
2015,06,18,05,20,12.10
2015,06,18,05,21,12.10
2015,06,18,05,22,12.10
2015,06,18,05,23,12.00
2015,06,18,05,24,12.00
2015,06,18,05,25,12.00
2015,06,18,05,26,12.00
2015,06,18,05,27,12.00
2015,06,18,05,28,11.90
2015,06,18,05,29,11.90
2015,06,18,05,30,11.90
2015,06,18,05,31,11.90
2015,06,18,05,32,11.90
2015,06,18,05,33,11.90
2015,06,18,05,34,11.90
2015,06,18,05,35,11.90
2015,06,18,05,36,11.90
2015,06,18,05,37,11.90
2015,06,18,05,38,11.90
2015,06,18,05,39,11.90
2015,06,18,05,40,11.90
2015,06,18,05,41,11.90
2015,06,18,05,42,11.90
2015,06,18,05,43,11.90
2015,06,18,05,44,11.90
2015,06,18,05,45,11.90
2015,06,18,05,46,11.90
2015,06,18,05,47,11.90
2015,06,18,05,48,11.90
2015,06,18,05,49,11.90
2015,06,18,05,50,11.90
2015,06,18,05,51,11.90
2015,06,18,05,52,11.80
2015,06,18,05,53,11.80
2015,06,18,05,54,11.90
2015,06,18,05,55,11.90
2015,06,18,05,56,11.90
2015,06,18,05,57,11.90
2015,06,18,05,58,11.90
2015,06,18,05,59,11.90
2015,06,18,06,00,11.90
2015,06,18,06,01,11.90
2015,06,18,06,02,11.90
2015,06,18,06,03,11.90
2015,06,18,06,04,11.90
2015,06,18,06,05,11.90
2015,06,18,06,06,12.00
2015,06,18,06,07,12.00
2015,06,18,06,08,12.00
2015,06,18,06,09,12.00
2015,06,18,06,10,12.00
2015,06,18,06,11,12.00
2015,06,18,06,12,12.00
2015,06,18,06,13,12.10
2015,06,18,06,14,12.10
2015,06,18,06,15,12.10
2015,06,18,06,16,12.10
2015,06,18,06,17,12.10
2015,06,18,06,18,12.10
2015,06,18,06,19,12.10
2015,06,18,06,20,12.10
2015,06,18,06,21,12.10
2015,06,18,06,22,12.20
2015,06,18,06,23,12.20
2015,06,18,06,24,12.20
2015,06,18,06,25,12.20
2015,06,18,06,26,12.20
2015,06,18,06,27,12.20
2015,06,18,06,28,12.20
2015,06,18,06,29,12.30
2015,06,18,06,30,12.30
2015,06,18,06,31,12.30
2015,06,18,06,32,12.30
2015,06,18,06,33,12.30
2015,06,18,06,34,12.30
2015,06,18,06,35,12.40
2015,06,18,06,36,12.40
2015,06,18,06,37,12.40
2015,06,18,06,38,12.40
2015,06,18,06,39,12.50
2015,06,18,06,40,12.50
2015,06,18,06,41,12.50
2015,06,18,06,42,12.50
2015,06,18,06,43,12.50
2015,06,18,06,44,12.60
2015,06,18,06,45,12.60
2015,06,18,06,46,12.60
2015,06,18,06,47,12.60
2015,06,18,06,48,12.60
2015,06,18,06,49,12.60
2015,06,18,06,50,12.60
2015,06,18,06,51,12.70
2015,06,18,06,52,12.70
2015,06,18,06,53,12.80
2015,06,18,06,54,12.80
2015,06,18,06,55,12.80
2015,06,18,06,56,12.80
2015,06,18,06,57,12.80
2015,06,18,06,58,12.90
2015,06,18,06,59,12.90
2015,06,18,07,00,12.90
2015,06,18,07,01,12.90
2015,06,18,07,02,13.00
2015,06,18,07,03,13.00
2015,06,18,07,04,13.10
2015,06,18,07,05,13.10
2015,06,18,07,06,13.10
2015,06,18,07,07,13.20
2015,06,18,07,08,13.20
2015,06,18,07,09,13.30
2015,06,18,07,10,13.30
2015,06,18,07,11,13.30
2015,06,18,07,12,13.40
2015,06,18,07,13,13.50
2015,06,18,07,14,13.50
2015,06,18,07,15,13.60
2015,06,18,07,16,13.60
2015,06,18,07,17,13.70
2015,06,18,07,18,13.70
2015,06,18,07,19,13.80
2015,06,18,07,20,13.80
2015,06,18,07,21,13.90
2015,06,18,07,22,13.90
2015,06,18,07,23,13.90
2015,06,18,07,24,14.00
2015,06,18,07,25,14.00
2015,06,18,07,26,14.10
2015,06,18,07,27,14.10
2015,06,18,07,28,14.10
2015,06,18,07,29,14.10
2015,06,18,07,30,14.20
2015,06,18,07,31,14.20
2015,06,18,07,32,14.20
2015,06,18,07,33,14.30
2015,06,18,07,34,14.30
2015,06,18,07,35,14.30
2015,06,18,07,36,14.30
2015,06,18,07,37,14.30
2015,06,18,07,38,14.30
2015,06,18,07,39,14.30
2015,06,18,07,40,14.30
2015,06,18,07,41,14.30
2015,06,18,07,42,14.30
2015,06,18,07,43,14.30
2015,06,18,07,44,14.30
2015,06,18,07,45,14.30
2015,06,18,07,46,14.30
2015,06,18,07,47,14.30
2015,06,18,07,48,14.30
2015,06,18,07,49,14.30
2015,06,18,07,50,14.30
2015,06,18,07,51,14.30
2015,06,18,07,52,14.30
2015,06,18,07,53,14.30
2015,06,18,07,54,14.30
2015,06,18,07,55,14.30
2015,06,18,07,56,14.30
2015,06,18,07,57,14.30
2015,06,18,07,58,14.40
2015,06,18,07,59,14.40
2015,06,18,08,00,14.40
2015,06,18,08,01,14.40
2015,06,18,08,02,14.40
2015,06,18,08,03,14.50
2015,06,18,08,04,14.50
2015,06,18,08,05,14.60
2015,06,18,08,06,14.60
2015,06,18,08,07,14.60
2015,06,18,08,08,14.70
2015,06,18,08,09,14.70
2015,06,18,08,10,14.70
2015,06,18,08,11,14.70
2015,06,18,08,12,14.70
2015,06,18,08,13,14.70
2015,06,18,08,14,14.80
2015,06,18,08,15,14.80
